Location: ??????
(37.7327°N, 24.0484°E)
Time: 15:29:02
(UTC+00:00)

Daily predictions for brighter satellites

Satellite Brightness Start Highest point End
(mag) Time Altitude Azimuth Time Altitude Azimuth Time Altitude Azimuth
NOAA 12 4.1 15:22:31 10° SSE 15:27:49 72° ENE 15:33:07 10° N
Cosmos 2279 Rocket 4.3 15:24:03 10° SSE 15:29:53 44° E 15:35:44 10° NNE
Cosmos 1666 3.7 15:27:58 10° NNE 15:31:04 24° ENE 15:34:08 10° SE
USA 229 DEB 4.4 15:24:45 10° NW 15:32:13 72° WSW 15:40:03 10° SSE
USA 229 4.4 15:24:50 10° NW 15:32:18 73° WSW 15:40:08 10° SSE
SL-08 R/B 4.3 15:28:43 10° N 15:33:12 48° WNW 15:37:37 10° SW
ISS -3.4 15:31:01 10° NW 15:34:18 46° NE 15:37:33 10° ESE
Meteor 2-14 Rocket 4.4 15:28:24 10° N 15:34:27 65° E 15:40:27 10° SSE
Cosmos 1627 Rocket 4.4 15:29:14 10° N 15:35:24 74° E 15:41:29 10° SSE
Cosmos 841 Rocket 4.1 15:30:25 10° SSW 15:35:29 59° WNW 15:40:35 10° N
CZ-4C R/B 3.2 15:31:38 10° NNW 15:38:55 52° NE 15:47:12 10° SE
CZ-2C R/B 2.1 15:36:18 10° WSW 15:40:30 48° S 15:44:35 10° E
Meteor PRIRODA 4.1 15:37:51 10° S 15:41:27 66° W 15:45:03 10° NNW
USA 234 4.0 15:37:37 10° E 15:43:17 33° NNE 15:48:58 10° NNW
Cosmos 2208 Rocket 4.1 15:39:08 10° S 15:44:27 66° ESE 15:49:51 10° NNE
Cosmos 1697 Rocket 3.6 15:40:21 10° NNW 15:45:49 54° WSW 15:51:15 10° S
Cosmos 372 Rocket 4.0 15:42:28 10° NNW 15:47:44 79° ENE 15:52:59 10° SSE
Cosmos 2322 Rocket 3.6 15:44:46 10° NNE 15:48:19 17° NE 15:51:52 10° E
Cosmos 1937 Rocket 4.2 15:43:48 10° NNW 15:49:04 62° WSW 15:54:16 10° S
AQUARIUS 4.1 15:45:23 10° SSE 15:49:47 62° ENE 15:54:14 10° N
Lacrosse 5 rocket 2.5 15:46:54 10° NNW 15:50:06 23° NE 15:53:16 11° E
CORIOLIS 4.1 15:46:12 10° SSE 15:51:32 68° ENE 15:56:56 10° N
Cosmos 1328 Rocket 3.8 15:47:18 10° SSE 15:51:35 50° E 15:55:54 10° NNE
Cosmos 1980 Rocket 2.2 15:46:26 10° NNW 15:52:07 84° ENE 15:57:43 10° SSE
Cosmos 1634 Rocket 4.3 15:45:50 10° SSW 15:52:08 74° W 15:58:29 10° N
Cosmos 1867 4.4 15:48:29 10° S 15:53:17 33° ESE 15:57:45 12° NE
Cosmos 2026 Rocket 4.1 15:49:45 10° N 15:55:51 79° W 16:01:53 10° S
Tiangong 2.6 15:53:14 10° SSW 15:55:53 25° SSE 15:58:00 13° E
H-2A R/B 2.3 15:51:04 10° SE 15:55:54 43° ENE 16:00:38 10° N
Cosmos 1666 Rocket 3.5 15:52:16 10° N 15:56:40 62° E 16:00:58 10° SSE
Cosmos 1125 Rocket 4.4 15:54:03 10° N 15:58:28 26° ENE 16:02:52 10° ESE
Cosmos 1812 3.0 15:55:40 10° SSW 15:59:30 72° W 16:03:20 10° N
Cosmos 1470 Rocket 4.3 15:56:14 10° NNE 16:00:13 31° ENE 16:04:12 10° SE
PSLV R/B 3.7 15:56:41 10° SSE 16:00:16 53° ENE 16:03:56 10° N
Okean O Rocket 2.7 15:57:26 10° ESE 16:01:00 24° ENE 16:04:33 10° NNE
CZ-2C R/B 4.3 15:58:20 10° S 16:02:56 41° W 16:07:26 10° NNW
Meteor 2-21 Rocket 4.4 15:56:53 10° N 16:02:59 81° E 16:09:02 10° S
Cosmos 1544 4.2 16:00:20 10° NNE 16:03:11 22° ENE 16:06:02 10° SE
Cosmos 2369 4.4 15:58:03 10° NNW 16:03:41 60° WSW 16:09:16 10° S
X-37B 0.6 16:02:01 10° WSW 16:04:52 61° NNW 16:06:35 21° NE
ARGOS 3.7 16:02:10 10° SE 16:06:57 33° ENE 16:11:45 10° N
Cosmos 2082 Rocket 3.6 16:01:44 10° SW 16:06:58 37° WNW 16:12:13 10° N
SL-16 R/B 2.9 16:04:15 10° N 16:09:15 31° ENE 16:14:14 10° ESE
Sich 1 4.4 16:08:07 10° NNW 16:12:12 42° W 16:16:17 10° SSW
SMAP 3.7 16:08:47 10° S 16:13:22 60° W 16:17:58 10° NNW
Meteor 1-5 Rocket 4.3 16:08:37 10° N 16:14:36 83° E 16:20:24 10° S
SKYMED 2 3.7 16:11:26 10° NNE 16:15:42 54° E 16:19:57 10° S
deb Chang Zheng 4 3.9 16:13:02 10° SE 16:17:02 39° ENE 16:21:04 10° N
CZ-4B DEB 4.5 16:18:21 10° S 16:23:50 73° WSW 16:29:20 10° NNW
Cosmos 2278 4.0 16:20:31 10° NNW 16:26:12 72° WSW 16:31:50 10° SSE
Aureole 3 Rocket 3.7 16:24:25 10° SSE 16:28:24 41° E 16:33:48 10° NNE
CZ-2C R/B 2.5 16:27:29 10° NNE 16:32:41 85° ESE 16:37:51 10° SSW
USA 305 4.4 16:29:55 10° NNW 16:32:51 20° NNE 16:32:51 20° NNE
Cosmos 1655 Rocket 4.0 16:28:53 10° N 16:35:15 67° E 16:41:32 10° SSE
Cosmos 1356 Rocket 3.6 16:31:49 10° N 16:35:56 48° ENE 16:40:04 10° SSE
Cosmos 1515 Rocket 3.5 16:34:10 10° S 16:38:37 88° W 16:43:04 10° N
Cosmos 44 Rocket 3.1 16:35:36 10° NNW 16:40:29 88° ENE 16:45:12 10° SSE
Cosmos 921 Rocket 4.1 16:37:35 10° SW 16:41:34 42° WNW 16:45:38 10° N
Cosmos 2228 Rocket 4.0 16:41:19 10° SSE 16:44:07 30° ESE 16:44:07 30° ESE
CZ-4 R/B 4.3 16:42:36 10° SSE 16:46:42 74° ENE 16:50:50 10° N
CZ-4B R/B 3.2 16:44:31 10° SSE 16:49:56 81° WSW 16:55:18 10° NNW
IRAS Rocket 4.5 16:57:20 44° E 16:57:38 44° E 17:02:53 10° S
Cosmos 2298 Rocket 4.2 16:53:37 10° NNW 16:58:56 75° WSW 17:04:14 10° S
Meteor 1-27 Rocket 3.6 16:53:36 10° S 16:59:07 88° W 17:04:01 14° N
Cosmos 1833 4.2 16:56:49 10° S 17:02:15 56° ESE 17:03:02 52° ENE
CZ-4C R/B 3.4 17:03:22 57° SW 17:03:22 57° SW 17:06:14 10° SSW
COSMO-SKYMED 1 3.8 16:59:37 10° N 17:03:41 40° WNW 17:07:44 10° SW
Landsat 5 4.1 17:05:03 27° N 17:06:59 52° WNW 17:10:45 10° SSW
Genesis I 3.3 17:04:51 10° SSW 17:08:21 71° SW 17:08:21 71° SW
Cosmos 2360 Rocket 3.1 17:04:54 10° N 17:08:17 32° NNE 17:08:17 32° NNE
ISS -0.8 17:08:35 10° W 17:10:50 17° SW 17:13:05 10° S
Cosmos 2237 4.1 17:07:53 10° NNW 17:13:34 64° ENE 17:13:44 64° ENE
Cosmos 783 Rocket 4.3 17:12:53 10° SSW 17:18:07 79° ESE 17:18:08 79° ESE
CZ-2C R/B 2.0 17:15:40 10° W 17:19:13 51° SW 17:19:13 51° SW
DMSP B5D2-2 4.0 17:19:40 57° N 17:20:47 87° WNW 17:26:02 10° SSW
SL-08 RB Rocket 4.1 17:17:03 10° S 17:21:38 63° W 17:26:13 10° NNW
ATLAS 5 CENTAUR R/B 4.1 17:18:34 10° NNW 17:19:39 16° NNW 17:19:39 16° NNW
USA 234 3.2 17:22:36 33° SE 17:25:51 81° SW 17:32:26 10° NW
Cosmos 773 Rocket 4.0 17:21:21 10° SSW 17:26:05 72° S 17:26:05 72° S
CZ-4C R/B 4.4 17:20:26 10° NW 17:27:32 39° WSW 17:35:20 10° S
Lacrosse 5 rocket 2.4 17:25:27 10° NW 17:28:57 43° WSW 17:28:57 43° WSW
Tiangong 4.1 17:29:20 10° W 17:30:10 17° W 17:30:10 17° W
Cosmos 2322 Rocket 2.3 17:27:16 10° NNW 17:32:57 73° WSW 17:35:03 40° S
NOSS 3-3 (A) 4.4 17:31:31 10° SW 17:36:57 51° NW 17:38:22 42° N
NOSS 3-3 (C) 4.4 17:31:36 10° SW 17:37:03 52° NW 17:38:26 43° N
Okean O Rocket 3.6 17:33:21 10° SSW 17:37:11 28° W 17:41:02 10° NW
SL-16 R/B 3.7 17:48:15 10° NW 17:53:19 34° WSW 17:58:21 10° SSW
